MOZHAYETS 4

Satellite information

Favourite Embed

Satellite Type and Status

PAYLOADIN ORBIT

Key statistics

Satellite MOZHAYETS 4 at a glance.

Uptime

7955

Days in orbit

Revolutions

≈ 14.7

Per day

Orbit

SSO

Sun Synchronous Orbit

Inclination

98.3

Latest

Satellite identification and parameters

Extended collection of information and parameters for MOZHAYETS 4.

Object identification

Identified? True

Debris? False

Object name: MOZHAYETS 4

International designator: 2003-042A

Object number (NORAD): 27939

Object ID (CCSDS): 27939

Country: COMMONWEALTH OF INDEPENDENT STATES (CIS)

Current information (Y/N): Y

RCS size: MEDIUM

Orbital parameters

Period: 97.799 minutes

Inclination: 98.3299 deg

SMA: 7031.539 km

Apoapsis: 660.547 km

Periapsis: 646.261 km

RAAN: 357.9817 deg

Eccentricy: 0.0010158

Argument of periapsis: 285.2756 deg

Mean anomaly: 211.7261 deg

Mean motion: 14.72404654 rev/day

Mean motion (dot): 0.00000778 rev/day2

B* drag term: 0.00013113 1/REarth

Two-line elements (TLE)

Creation date: July 6, 2025, 10:36 p.m.

Reference frame: TEME

Reference center: EARTH

Epoch: July 6, 2025, 8:49 p.m. UTC

TLE line 0: 0 MOZHAYETS 4

TLE line 1: 1 27939U 03042A 25187.86780131 .00000778 00000-0 13113-3 0 9990

TLE line 2: 2 27939 98.3299 357.9817 0010158 285.2756 211.7261 14.72404654164842

Live tracking on map

Real-time ground track for satellite MOZHAYETS 4.

In-orbit conjunctions

There are no conjunctions computed for MOZHAYETS 4, at the moment. Check back to stay up to date, as we update our databases every day.

Go to all conjunctions

Associated space launch

Mozhayets 4 (RS 22) was also a training satellite built by the Mozhaisky military academy. It also tested components to be used in upgraded GLONASS satellites.

MOZHAYETS 4 was lifted into orbit during the mission ‘Kosmos-3M | Mozhaets-4’, on board a Kosmos-3M space rocket.

The launch took place on Sept. 27, 2003, 6:11 a.m. from 132/1 (132L).

For more information about the launch, click the button.

Launch to space Kosmos-3M | Mozhaets-4
Kosmos-3M | Mozhaets-4

Agency: N/A

Status: Launch Successful

Launch date: Sept. 27, 2003, 6:11 a.m. UTC

Rocket: Kosmos-3M

Launch pad: 132/1 (132L)

Location: Plesetsk Cosmodrome, Russian Federation

...

Latest news about this satellite

There are no fresh news available about this satellite. Check back as we update our databases every day.


Newsletter sign-up

Weekly statistics, charts and insights to help you stay on top of the space industry.